Hauptseite
METAR-TAF:

METAR-TAF

Flughäfen :

Flugplatz Pontoise-Cormeilles

Pontoise, Frankreich

Breite: 49-05-48N, Länge: 002-02-27E, Höhe: 99 m

Beobachtung

Neuester Wetterbericht von vor 35 Minuten, um 20:30 UTC
Wind 13 kt aus Südwest
Temperatur 6°C
Luftfeuchtigkeit 87%
Luftdruck 1007 hPa
Sichtweite 10 km oder mehr
Geschlossene Wolkendecke in der Höhe von 1400 ft

METAR: LFPT 162030Z AUTO 23013KT 9999 OVC014 06/04 Q1007

Zeit: 22:05 (21:05 UTC)


TAF: fehlend

Wetterbeobachtungen und Prognosen von mehr als 4000 Flughäfen (METAR und TAF Bericht).

Die verfügbaren Stationen werden durch gelbe und rote Markierungen auf der Karte dargestellt.

Führen Sie die Maus auf sie, um den Namen der Station zu sehen.

Darauf klicken, um die Beobachtung von Wetterbeobachtungen und Prognosen zu sehen.

Um die Karte zu ändern : klicken Sie auf den grünen Tasten mit einem schwarzen Kreuz Zum Vergrößern, auf den grünen Button mit einem Gedankenstrich zu verkleinern, oder auf die grünen Pfeile für benachbarte Karten.


METAR-TAF: